Location: Jouix
(45.3553°N, 1.9767°E)
Time: 18:07:48
(UTC+00:00)

Daily predictions for brighter satellites

Satellite Brightness Start Highest point End
(mag) Time Altitude Azimuth Time Altitude Azimuth Time Altitude Azimuth
H-2A R/B 2.3 18:02:53 10° SSE 18:08:10 55° ENE 18:13:29 10° N
CZ-2C R/B 3.6 18:04:06 10° NE 18:08:37 26° E 18:13:03 10° SSE
USA 305 4.3 18:05:50 10° WNW 18:09:40 31° NNW 18:13:29 10° NE
IRS-1C Rocket 4.1 18:06:44 10° SSE 18:11:58 71° ENE 18:17:14 10° N
Gbstr 26 Del rocket 3.9 18:08:15 10° W 18:12:23 48° NNW 18:17:25 10° ENE
Meteor 1-20 Rocket 4.1 18:08:53 10° S 18:14:17 68° E 18:19:46 10° NNE
Cosmos 1302 Rocket 4.1 18:09:23 10° SSW 18:14:35 84° WNW 18:19:50 10° NNE
SL-4 R/B 3.0 18:12:01 10° WNW 18:15:12 28° N 18:18:16 10° ENE
CSL-04 DEB 4.5 18:15:25 10° NNE 18:19:23 83° WNW 18:23:23 10° SSW
USA 307 4.4 18:17:14 10° WNW 18:21:01 29° NNW 18:24:47 10° NE
ATLAS CENTAUR R/B 2.0 18:20:06 10° S 18:23:12 27° ESE 18:26:17 10° ENE
FALCON 9 DEB 4.0 18:20:08 10° NW 18:23:21 36° NNE 18:26:13 12° E
USA 306 4.4 18:20:43 10° WNW 18:24:27 28° NNW 18:28:11 10° NE
Cosmos 44 Rocket 3.4 18:22:15 10° NNW 18:27:32 76° NE 18:32:43 10° SE
Okean-O 2.6 18:23:32 10° SSE 18:27:56 69° ENE 18:32:21 10° N
ERS-2 2.4 18:25:07 10° NNE 18:28:38 44° E 18:32:08 10° S
CSL-04 Rocket 4.0 18:24:05 10° SE 18:29:21 48° ENE 18:34:38 10° N
Cosmos 1844 Rocket 3.1 18:24:38 10° NNW 18:29:53 40° NE 18:35:06 10° SE
Cosmos 2084 Rocket 3.6 18:25:36 10° NNW 18:29:53 59° NE 18:34:19 10° SE
CSL-04 Debris 4.4 18:25:27 10° SE 18:30:42 52° ENE 18:36:00 10° N
SAR-Lupe-1 4.4 18:27:19 10° NNE 18:30:47 44° E 18:34:13 10° S
USA 308 4.5 18:27:57 10° WNW 18:31:41 28° N 18:35:23 10° NE
Cosmos 1666 4.0 18:30:51 10° SE 18:33:24 18° E 18:35:58 10° NE
Cosmos 1271 Rocket 3.8 18:30:48 10° NNW 18:34:25 48° W 18:38:02 10° S
HJ-1C 3.4 18:32:38 10° SSE 18:35:52 53° ENE 18:39:06 10° N
Cosmos 1503 Rocket 4.1 18:31:29 10° NNW 18:36:35 53° ENE 18:41:37 10° SE
Cosmos 2341 Rocket 4.5 18:31:34 10° SSE 18:37:17 38° E 18:42:58 10° NNE
H-2A R/B 4.4 18:34:00 10° N 18:37:21 25° WNW 18:40:41 10° WSW
PSLV R/B 3.8 18:35:40 10° NNE 18:39:47 79° ESE 18:43:50 10° S
Cosmos 1470 Rocket 3.5 18:36:48 10° S 18:41:13 66° E 18:45:38 10° NNE
Cosmos 1844 4.2 18:36:12 10° NNW 18:41:42 42° NE 18:46:58 11° SE
Cosmos 2360 Rocket 2.3 18:38:11 10° S 18:43:36 51° ESE 18:49:05 10° NE
CZ-4B R/B 3.3 18:40:56 10° N 18:43:41 31° WNW 18:46:26 10° SW
Cosmos 1602 4.0 18:41:01 10° SSW 18:44:53 71° W 18:48:49 10° N
Ariane Rocket 4.2 18:42:04 15° ESE 18:44:58 23° ENE 18:48:56 10° N
Cosmos 2278 Rocket 4.0 18:43:29 10° N 18:46:34 15° NE 18:48:36 12° ENE
Meteor 1-19 Rocket 4.4 18:43:36 10° NNW 18:49:35 87° W 18:55:22 10° S
Cosmos 1500 3.0 18:48:16 10° S 18:51:57 63° E 18:55:39 10° NNE
Cosmos 2333 Rocket 3.0 18:49:13 10° SSE 18:53:55 27° ESE 18:58:38 10° NE
Meteor 2-4 Rocket 3.8 18:48:21 10° N 18:54:10 62° ENE 19:00:01 10° SSE
Cosmos 1703 Rocket 3.9 18:50:09 10° N 18:54:22 43° ENE 18:58:32 10° SSE
DMSP B5D1-3 4.5 18:49:43 10° NNE 18:54:54 86° ESE 19:00:04 10° SSW
SL-08 RB Rocket 3.6 18:52:02 10° SSE 18:56:31 71° ENE 19:01:03 10° N
Cosmos 1689 Rocket 2.4 18:54:16 10° N 18:57:08 65° WNW 18:59:59 10° SSW
Meteor 2-12 Rocket 4.4 18:51:18 10° S 18:57:21 82° E 19:03:29 10° N
ERBS 4.4 18:56:48 10° W 18:59:29 22° NNW 19:02:10 10° NNE
Cosmos 1933 Rocket 3.4 18:57:48 10° S 19:02:07 72° E 19:06:31 10° NNE
BREEZE-M DEB (TANK) 4.2 19:02:11 10° SSW 19:03:36 20° SSE 19:03:36 20° SSE
Aureole 2 Rocket 2.3 19:02:35 10° NNW 19:05:04 53° WSW 19:06:51 16° S
Resurs 01 Rocket 3.4 19:12:41 16° NE 19:12:41 16° NE 19:14:26 10° NNE
Cosmos 2242 Rocket 3.5 19:07:57 10° N 19:12:29 77° E 19:16:56 10° SSE
Cosmos 2322 Rocket 2.9 19:08:06 10° SW 19:13:37 56° WNW 19:19:10 10° NNE
Lacrosse 4 Rocket 2.7 19:11:54 10° S 19:14:29 25° SE 19:14:29 25° SE
Abrixas rocket 2.5 19:13:49 10° WNW 19:16:07 37° N 19:16:07 37° N
SME Rocket 4.3 19:11:13 10° NNE 19:18:56 50° E 19:24:01 10° S
Helios 1A Rocket 3.7 19:15:00 10° S 19:18:57 52° W 19:22:55 10° NNW
YAOGAN 1 4.4 19:15:55 10° SSW 19:19:48 32° W 19:23:43 10° NNW
SJ-6B 2.9 19:22:30 38° SE 19:23:46 56° ENE 19:27:46 10° N
COSMOS 2428 3.2 19:18:49 10° SSE 19:23:52 34° ESE 19:24:51 32° E
GP-B 3.4 19:23:25 10° S 19:27:51 69° W 19:32:17 10° N
ASTEX 1 3.5 19:23:16 10° NNE 19:28:00 47° E 19:30:11 28° SSE
MOS 1 4.4 19:25:33 26° SE 19:28:40 55° ENE 19:34:12 10° N
Cosmos 2219 Rocket 2.3 19:25:28 10° S 19:30:46 46° ESE 19:36:07 10° NE
Meteor 1-11 Rocket 3.8 19:25:36 10° S 19:31:10 55° E 19:36:38 10° NNE
MetOp-A 4.0 19:27:23 10° SSE 19:32:45 86° ENE 19:38:08 10° NNW
OBJECT-B 2.1 19:36:24 30° N 19:36:24 30° N 19:38:15 10° N
Resurs 1-3 4.0 19:38:47 43° NE 19:38:47 43° NE 19:42:29 10° N
SL-16 R/B 4.0 19:33:31 10° WSW 19:38:32 32° NW 19:43:35 10° N
SJ 16-02 2.8 19:37:02 10° N 19:39:34 24° NNE 19:39:34 24° NNE
SeaSat 1 3.2 19:36:33 10° NNE 19:41:22 53° NW 19:46:10 10° SW
Okean 1-7 3.4 19:37:16 10° NNW 19:41:37 62° W 19:45:45 11° S
Cosmos 1066 Rocket 4.2 19:38:12 10° N 19:43:53 62° ENE 19:45:41 42° SE
Meteor 1-13 Rocket 4.2 19:38:19 10° N 19:44:19 85° E 19:48:31 20° SSE
USA 234 3.1 19:39:53 22° NE 19:44:25 80° SE 19:50:59 10° SW
CZ-2C R/B 3.7 19:43:53 10° N 19:49:08 47° WNW 19:54:15 10° SW
IRS-1A Rocket 4.1 19:46:43 30° SSE 19:49:37 83° ENE 19:55:12 10° NNW
USA 305 4.4 19:46:55 10° NW 19:50:34 26° N 19:50:56 26° NNE
Cosmos 2322 3.6 19:45:00 10° SSW 19:50:43 84° ESE 19:56:29 10° NNE
BREEZE-M DEB (TANK) 2.9 19:48:10 10° WNW 19:50:53 51° NNE 19:51:09 50° NNE
SL-4 R/B 2.8 19:51:47 10° WNW 19:54:12 38° NW 19:54:12 38° NW
Cosmos 1869 Rocket 3.7 19:52:06 10° SSW 19:56:26 72° W 20:00:50 10° N
SL-8 Rocket 4.2 19:52:38 10° SSW 19:58:52 70° W 20:05:05 10° N
Gbstr 26 Del rocket 4.2 19:55:32 10° WNW 20:00:07 43° N 20:00:59 40° NE
USA 307 4.4 19:58:17 10° NW 20:01:49 27° N 20:01:49 27° N
ATLAS CENTAUR R/B 3.0 19:58:48 10° WSW 20:01:58 28° NW 20:03:10 23° N
USA 306 4.4 20:01:40 10° NW 20:05:03 27° N 20:05:03 27° N
Cosmos 1666 4.4 20:05:22 10° SW 20:08:43 31° WNW 20:12:05 10° N
Cosmos 1844 Rocket 4.2 20:08:44 10° NW 20:13:39 33° WSW 20:17:54 13° SSW
Cosmos 2366 rocket 4.3 20:07:38 10° SSW 20:13:55 67° W 20:20:16 10° N
SL-08 R/B 4.4 20:11:58 35° S 20:14:54 79° E 20:21:24 10° N
SPOT 3 Rocket 3.9 20:18:37 56° N 20:18:37 56° N 20:22:48 10° N
Okean 3 4.4 20:15:41 10° NNW 20:19:31 47° W 20:19:31 47° W
Ariane Rocket 3.7 20:22:15 40° SW 20:23:36 51° W 20:28:35 10° NNW
Cosmos 2360 Rocket 4.0 20:23:00 10° WSW 20:27:52 29° NW 20:32:47 10° N
Cosmos 2278 Rocket 2.7 20:26:07 10° NNW 20:30:28 50° N 20:30:28 50° N
Cosmos 1727 Rocket 4.3 20:30:15 10° NNW 20:36:21 63° W 20:37:45 50° SW
Cosmos 2333 Rocket 3.0 20:32:22 10° SW 20:37:52 50° WNW 20:43:27 10° NNE
Resurs 01 Rocket 3.7 20:50:14 24° NNW 20:50:14 24° NNW 20:52:03 10° NNW
Cosmos 1943 Rocket 4.3 20:46:31 10° N 20:48:24 17° NNE 20:48:24 17° NNE
Lacrosse 4 Rocket 4.1 20:50:11 10° WSW 20:50:57 14° WSW 20:50:57 14° WSW
COSMOS 2428 3.9 21:02:44 10° SW 21:14:01 - NNE 21:07:14 38° WNW
Cosmos 2219 Rocket 3.8 21:09:58 10° WSW 21:14:54 31° NW 21:19:52 10° N
SJ 16-02 4.2 21:15:34 10° NW 21:16:35 16° NW 21:16:35 16° NW
USA 234 4.1 21:27:15 44° NNW 21:27:15 44° NNW 21:33:17 10° W
